Content
SEND FEEDBACK

Daily
Averages
Monthly
Summary
Canada

QUEBEC CITY, QUEBEC


Home > North America > Canada > Quebec
Elevation: 239 feet     Latitude: 46 48N     Longitude: 071 23W

WEATHER
 
SELECT A DAY
Number of Records: 196,112;   Date Range: 6/30/96 - 10/29/14
 
SHARE

PRINT THIS DATA

[ ← Previous Day ]
WEATHER ALMANAC - FEBRUARY 7, 2013
[ Next Day → ]
[ °C ]   °F
Weather ElementAverageHighLow
Temperature-7.9 °F-2.2 °F (4:00 pm)-14 °F (7:00 am)
Dewpoint-23.5 °F-16 °F (1:00 am)-31 °F (9:00 am)
Humidity43.2 %61 % (10:00 pm)22 % (10:00 am)
Barometer30.57 in30.65 in (11:00 am)30.38 in (1:00 am)
Wind Speed8.4 mph15 mph (1:00 pm)
Wind Gust20.7 mph (1:00 pm)
Weather ElementAverage
Visibility17.2 mi
Wind DirectionWSW (239.3 °)

Weather ElementTotal
Precipitation---
Heating Degree Days73.1 (Base 65)
Averaged from 30 records on February 7, 2013
WEATHER CONDITIONS BREAKOUT
WIND DIRECTION BREAKOUT
WEATHER BY HOUR - FEBRUARY 7, 2013
[ °C ]   °F
Local TimeTemperatureDewpointHumidityBarometerVisibilityWind DirectionWind SpeedGust SpeedPrecipitationEventsConditions
1:00 AM-4.0 °F-16.0 °F39 %30.38 inWNW (300°)8.1 mph
1:00 AM-4.0 °F-20.2 °F46 %30.38 in15.0 miWNW (290°)8.1 mphClear
2:00 AM-5.8 °F-22.0 °F46 %30.42 in15.0 miNW (310°)10.4 mphClear
3:00 AM-7.6 °F-23.8 °F45 %30.44 in15.0 miWNW (300°)12.7 mphClear
4:00 AM-9.0 °F-22.0 °F36 %30.47 inWNW (290°)10.4 mph
4:00 AM-9.4 °F-25.6 °F45 %30.47 in15.0 miWNW (300°)13.8 mphClear
5:00 AM-11.2 °F-27.4 °F45 %30.51 in15.0 miNW (310°)10.4 mphClear
6:00 AM-11.2 °F-29.2 °F41 %30.54 in15.0 miWNW (300°)10.4 mphClear
7:00 AM-14.0 °F-26.0 °F37 %30.56 inWNW (290°)6.9 mph
7:00 AM-13.0 °F-29.2 °F44 %30.57 in15.0 miWNW (290°)6.9 mphClear
8:00 AM-13.0 °F-29.2 °F44 %30.60 in20.0 miWNW (300°)10.4 mphClear
9:00 AM-11.2 °F-31.0 °F37 %30.62 in20.0 miNW (310°)6.9 mphClear
10:00 AM-10.0 °F-28.0 °F22 %30.64 inWSW (250°)5.8 mph
10:00 AM-9.4 °F-29.2 °F37 %30.64 in20.0 miSW (220°)6.9 mphClear
11:00 AM-7.6 °F-27.4 °F38 %30.65 in20.0 miSW (220°)10.4 mphClear
12:00 PM-5.8 °F-25.6 °F38 %30.64 in20.0 miSW (230°)11.5 mphClear
1:00 PM-5.8 °F-22.0 °F46 %30.63 in20.0 miSW (220°)15.0 mph20.7 mphClear
2:00 PM-4.0 °F-20.2 °F46 %30.62 in20.0 miSSW (210°)13.8 mphClear
3:00 PM-4.0 °F-20.2 °F46 %30.62 in20.0 miSW (220°)10.4 mphClear
4:00 PM-3.0 °F-18.0 °F31 %30.61 inWSW (250°)6.9 mph
4:00 PM-2.2 °F-20.2 °F42 %30.62 in20.0 miSW (230°)9.2 mphClear
5:00 PM-4.0 °F-20.2 °F46 %30.62 in20.0 miSW (230°)9.2 mphPartly Cloudy
6:00 PM-5.8 °F-22.0 °F46 %30.63 in15.0 miWest (270°)5.8 mphPartly Cloudy
7:00 PM-7.6 °F-22.0 °F50 %30.63 in15.0 miNW (310°)4.6 mphClear
7:00 PM-9.0 °F-19.0 °F47 %30.63 inNW (320°)1.2 mph
8:00 PM-5.8 °F-22.0 °F46 %30.63 in15.0 miNorth (360°)3.5 mphClear
9:00 PM-7.6 °F-22.0 °F50 %30.62 in15.0 miNorth (10°)5.8 mphClear
10:00 PM-12.0 °F-18.0 °F61 %30.59 inNorth3.5 mph
10:00 PM-9.4 °F-23.8 °F49 %30.60 in15.0 miNorth (10°)5.8 mphPartly Cloudy
11:00 PM-9.4 °F-23.8 °F49 %30.61 in15.0 miNNE (30°)5.8 mphPartly Cloudy
Hourly data recorded from CYQB, located miles away from Quebec City, Quebec







STORIES FROM OUR PARTNERS